This is the latest recevied weather packets stored in our database for station/object KD9NSC. If no packets are shown the sender has not sent any weather packets the latest 10 day(s).
| Time | Temp. | Humidity | Pressure | Rain* | Wind** | Luminosity | Snow |
|---|---|---|---|---|---|---|---|
| 1777670926 | 7.22° C | 76% | 1019.8 hPa | 0 mm | - | 38 W/m² | - |
| 1777670623 | 7.22° C | 73% | 1019.9 hPa | 0 mm | - | 37 W/m² | - |
| 1777670320 | 7.22° C | 73% | 1019.6 hPa | 0 mm | - | 49 W/m² | - |
| 1777670017 | 7.22° C | 74% | 1019.7 hPa | 0 mm | - | 40 W/m² | - |
| 1777669714 | 7.22° C | 72% | 1019.7 hPa | 0 mm | - | 52 W/m² | - |
| 1777669411 | 7.22° C | 72% | 1019.8 hPa | 0 mm | - | 68 W/m² | - |
| 1777669108 | 7.22° C | 73% | 1019.6 hPa | 0 mm | - | 57 W/m² | - |
| 1777668805 | 7.22° C | 71% | 1019.7 hPa | 0 mm | - | 55 W/m² | - |
| 1777668496 | 7.78° C | 73% | 1019.6 hPa | 0 mm | - | 53 W/m² | - |
| 1777668193 | 7.22° C | 72% | 1019.7 hPa | 0 mm | - | 64 W/m² | - |
| 1777667889 | 7.78° C | 70% | 1019.7 hPa | 0 mm | - | 59 W/m² | - |
| 1777667587 | 7.78° C | 73% | 1019.7 hPa | 0 mm | - | 61 W/m² | - |
| 1777667284 | 7.78° C | 72% | 1019.6 hPa | 0 mm | - | 61 W/m² | - |
| 1777666980 | 7.78° C | 75% | 1019.7 hPa | 0 mm | - | 62 W/m² | - |
| 1777666677 | 7.78° C | 69% | 1019.7 hPa | 0 mm | - | 63 W/m² | - |
| 1777666374 | 7.78° C | 71% | 1019.7 hPa | 0 mm | - | 63 W/m² | - |
| 1777666071 | 8.33° C | 70% | 1019.7 hPa | 0 mm | - | 63 W/m² | - |
| 1777665768 | 8.89° C | 70% | 1019.7 hPa | 0 mm | - | 76 W/m² | - |
| 1777665465 | 8.33° C | 72% | 1019.8 hPa | 0 mm | - | 274 W/m² | - |
| 1777665161 | 8.33° C | 74% | 1019.6 hPa | 0 mm | - | 84 W/m² | - |
| 1777664857 | 7.78° C | 73% | 1019.9 hPa | 0 mm | - | 89 W/m² | - |
| 1777664553 | 7.78° C | 72% | 1019.8 hPa | 0 mm | - | 98 W/m² | - |
| 1777664250 | 7.78° C | 70% | 1019.9 hPa | 0 mm | - | 87 W/m² | - |
| 1777663948 | 7.78° C | 70% | 1019.7 hPa | 0 mm | - | 65 W/m² | - |
| 1777663645 | 7.22° C | 71% | 1019.7 hPa | 0 mm | - | 42 W/m² | - |
* Rain latest hour (hover to see other rain measurements)
** Current wind speed in m/s (hover to see current wind gust speed)